Regional Weather Roundup
Issued by NWS

Home | Current Version | Previous Version | Text Only | Print | Product List | Glossary Off
Versions: 1 2 3 4 5 6 7 8 9 10 11 12 13 14 15 16 17 18 19 20 21 22 23 24 25 26 27 28 29 30 31 32 33 34 35 36 37 38 39 40 41 42 43 44 45 46 47 48 49 50

000
ASUS44 KMEG 221300
RWRTN
TENNESSEE HOURLY STATE WEATHER ROUNDUP
NATIONAL WEATHER SERVICE MEMPHIS TN
800 AM CDT FRI AUG 22 2014

TNZ002-004-019-021-049-052-054-088>092-221400-
WEST TENNESSEE

CITY           SKY/WX    TMP DP  RH WIND       PRES   REMARKS
MEMPHIS INTL   MOSUNNY   80  72  76 W6        30.10R
NWS MEMPHIS      N/A     79 N/A N/A MISG        N/A
JACKSON        SUNNY     78  73  84 SW9       30.10R
DYERSBURG      SUNNY     79  66  65 CALM      30.09R
UNION CITY     SUNNY     77  75  94 S5        30.06S
PARIS          SUNNY     75  72  88 SW7       30.10R
LEXINGTON      SUNNY     75  73  94 CALM      30.10S
SAVANNAH       SUNNY     79  79 100 W3        30.12R
$$

TNZ008-025-027-028-033-062-065-066-221400-
NORTH MIDDLE TENNESSEE

CITY           SKY/WX    TMP DP  RH WIND       PRES   REMARKS
NASHVILLE      CLOUDY    81  74  79 VRB3      30.11R
CLARKSVILLE    MOSUNNY   79  74  84 SW6       30.08R
COOKEVILLE     SUNNY     77  73  88 SW7       30.13S
CROSSVILLE     PTSUNNY   76  70  82 W6        30.19R
$$

TNZ061-075-076-078-094-096-097-221400-
SOUTH MIDDLE TENNESSEE

CITY           SKY/WX    TMP DP  RH WIND       PRES   REMARKS
FAYETTEVILLE   SUNNY     75  72  88 SW3       30.15R
TULLAHOMA      SUNNY     75  72  88 CALM      30.16R
WINCHESTER     SUNNY     75  72  88 CALM      30.15R
COLUMBIA       SUNNY     79  75  89 W6        30.12R
SHELBYVILLE    SUNNY     77  73  88 CALM      30.14R
$$

TNZ017-018-042-046-047-221400-
NORTHEAST TENNESSEE

CITY           SKY/WX    TMP DP  RH WIND       PRES   REMARKS
TRI CITIES     PTSUNNY   72  69  90 CALM      30.14S
ELIZABETHTON   SUNNY     72  70  94 CALM      30.15S
$$

TNZ012-013-036-069-073-074-221400-
CENTRAL EAST TENNESSEE

CITY           SKY/WX    TMP DP  RH WIND       PRES   REMARKS
KNOXVILLE      PTSUNNY   76  71  85 S5        30.12R
OAK RIDGE      CLOUDY    76  72  87 W5        30.14R
GATLINBURG     SUNNY     75  68  78 CALM      30.12S
$$

TNZ083-085-099-221400-
SOUTHEAST TENNESSEE

CITY           SKY/WX    TMP DP  RH WIND       PRES   REMARKS
CHATTANOOGA    PTSUNNY   79  72  79 CALM      30.13R
$$

SKY/WX REPORTED AS FAIR MEANS FEW OR NO CLOUDS BELOW
12 THOUSAND FEET.




USA.gov is the U.S. government's official web portal to all federal, state and local government web resources and services.